Lubbock, TX

12:07 AM CDT on April 25, 2018 (GMT -0500)
Lubbock International

Weather History for KLBB - May, 2014

Change the Weather History Date:

Tuesday, May 13, 2014

  Actual Average Record
Temperature  
Mean Temperature 54 °F 69 °F  
Max Temperature 65 °F 83 °F 100 °F (2006)
Min Temperature 43 °F 55 °F 37 °F (1953)
Degree Days  
Heating Degree Days 11 1  
Month to date heating degree days 31 26  
Since 1 July heating degree days 3493 3363  
Cooling Degree Days 0 5  
Month to date cooling degree days 99 54  
Year to date cooling degree days 157 110  
Growing Degree Days 4 (Base 50)    
Moisture  
Dew Point 24 °F    
Average Humidity 38    
Maximum Humidity 57    
Minimum Humidity 19    
Precipitation  
Precipitation T in 0.08 in 1.77 in (1950)
Month to date precipitation T 0.77  
Year to date precipitation 0.90 4.68  
Snow  
Snow 0.00 in 0.00 in T in (1950)
Month to date snowfall 0.0 0.0  
Since 1 July snowfall 4.2 8.2  
Snow Depth 0.00 in    
Sea Level Pressure  
Sea Level Pressure 30.24 in    
Wind  
Wind Speed 15 mph (NNE)    
Max Wind Speed 28 mph    
Max Gust Speed 35 mph    
Visibility 10 miles    
Events      
T = Trace of Precipitation, MM = Missing Value Source: NWS Daily Summary

Daily Weather History Graph

Daily Weather History Graph

Search for Another Location

Airport or City:

Astronomy

May. 13, 2014 Rise Set
Actual Time 6:48 AM CDT 8:39 PM CDT
Civil Twilight 6:20 AM CDT 9:07 PM CDT
Nautical Twilight 5:47 AM CDT 9:40 PM CDT
Astronomical Twilight 5:12 AM CDT 10:15 PM CDT
Moon 7:46 PM CDT (5/13) 6:01 AM CDT (5/13)
Length of Visible Light 14h 46m
Length of Day
13h 51m
Waxing Gibbous, 99% of the Moon is Illuminated
May 13
Waxing Gibbous
May 14
Full
May 21
Last Quarter
May 28
New
Jun 5
First Quarter

Hourly Weather History & Observations

Time (CDT) Temp. Windchill Dew Point Humidity Pressure Visibility Wind Dir Wind Speed Gust Speed Precip Events Conditions
12:53 AM 48.2 °F - 28.4 °F 46% 30.21 in 10.0 mi NE 21.9 mph 32.2 mph N/A   Clear
1:53 AM 46.9 °F - 30.0 °F 52% 30.15 in 10.0 mi NNE 13.8 mph - N/A   Clear
2:53 AM 46.0 °F 40.2 °F 28.0 °F 50% 30.18 in 10.0 mi NNE 12.7 mph - N/A   Partly Cloudy
3:53 AM 45.0 °F 37.9 °F 28.0 °F 52% 30.19 in 10.0 mi North 16.1 mph 23.0 mph N/A   Overcast
4:53 AM 45.0 °F 37.9 °F 28.0 °F 52% 30.19 in 10.0 mi North 16.1 mph - N/A   Overcast
5:53 AM 44.1 °F 36.2 °F 28.0 °F 53% 30.21 in 10.0 mi North 18.4 mph - N/A   Overcast
6:53 AM 43.0 °F 36.4 °F 28.0 °F 56% 30.23 in 10.0 mi North 12.7 mph - N/A   Mostly Cloudy
7:53 AM 44.6 °F 38.1 °F 28.4 °F 53% 30.31 in 10.0 mi North 13.8 mph - N/A   Mostly Cloudy
8:53 AM 48.0 °F - 26.1 °F 42% 30.27 in 10.0 mi North 18.4 mph 26.5 mph N/A   Overcast
9:53 AM 48.9 °F - 25.0 °F 39% 30.29 in 10.0 mi North 17.3 mph - N/A   Overcast
10:53 AM 51.8 °F - 23.0 °F 33% 30.33 in 10.0 mi North 19.6 mph 27.6 mph N/A   Overcast
11:53 AM 57.9 °F - 24.1 °F 27% 30.27 in 10.0 mi North 20.7 mph 31.1 mph N/A   Mostly Cloudy
12:53 PM 57.0 °F - 23.0 °F 27% 30.27 in 10.0 mi NNE 23.0 mph 31.1 mph N/A   Mostly Cloudy
1:53 PM 59.0 °F - 23.0 °F 25% 30.24 in 10.0 mi North 19.6 mph 29.9 mph N/A   Mostly Cloudy
2:53 PM 60.1 °F - 24.1 °F 25% 30.24 in 10.0 mi NNW 19.6 mph 26.5 mph N/A   Overcast
3:53 PM 63.0 °F - 23.0 °F 22% 30.22 in 10.0 mi NNE 12.7 mph - N/A   Overcast
4:53 PM 62.1 °F - 21.0 °F 21% 30.20 in 10.0 mi North 12.7 mph 29.9 mph N/A   Overcast
5:53 PM 63.0 °F - 19.9 °F 19% 30.20 in 10.0 mi North 15.0 mph 26.5 mph N/A   Overcast
6:53 PM 61.0 °F - 21.0 °F 21% 30.21 in 10.0 mi ENE 15.0 mph 21.9 mph N/A   Overcast
7:53 PM 59.0 °F - 19.9 °F 22% 30.23 in 10.0 mi NNE 16.1 mph 23.0 mph 0.00 in   Overcast
8:53 PM 57.0 °F - 18.0 °F 22% 30.26 in 10.0 mi NNE 12.7 mph - N/A   Mostly Cloudy
9:53 PM 55.0 °F - 19.0 °F 24% 30.29 in 10.0 mi North 12.7 mph - N/A   Mostly Cloudy
10:53 PM 51.1 °F - 19.0 °F 28% 30.32 in 10.0 mi North 8.1 mph - N/A   Clear
11:53 PM 48.9 °F - 19.0 °F 31% 30.33 in 10.0 mi North 8.1 mph - N/A   Clear